Flag for U.S.A. Weather past 2 weeks in Kykotsmovi Village, Hopi, Arizona, U.S.A.

Now
75 °F

Clear.


Feels Like: 75 °F
Forecast: 47 / 83 °F
Wind: 12 mph from Southwest

Location: Winslow Municipal Airport

Current Time: Jun 2, 2015 at 9:04:37 PM

Latest Report: Jun 2, 2015 at 7:56 PM


Visibility: 10 mi

Pressure: 29.81 "Hg

Humidity: 12%

Dew point: 20 °F

Location of Kykotsmovi Village, HopiLocation

Historic Weather in Kykotsmovi Village, Hopi — Graph

°F

Kykotsmovi Village, Hopi temperature yesterday

Maximum temperature yesterday: 94 °F (at 1:56 PM)
Minimum temperature yesterday: 54 °F (at 4:56 AM)
Average temperature yesterday: 76 °F

Past Weeks' High & Low Weather Summary

 TemperatureHumidityPressure
High94 °F (May 31, 1:56 PM)86% (May 26, 4:56 AM)30.04 "Hg (May 26, 4:56 AM)
Low38 °F (May 23, 1:56 AM)5% (Jun 1, 12:56 PM)29.68 "Hg (May 21, 3:56 PM)
Average65 °F34%29.89 "Hg
* Reported May 18 7:56 PM — Jun 2 7:56 PM, Kykotsmovi Village, Hopi, Weather by CustomWeather, © 2015

Note: Actual official high and low records may vary slightly from our data, if they occured in-between our weather recording intervals... More about our weather records

Advertising

Kykotsmovi Village, Hopi weather history for previous 24 hours

 ConditionsComfort  
Time TempWeatherWind HumidityBarometerVisibility
7:56 PM
Tue, Jun 2
75 °FClear.12 mph12%29.81 "Hg10 mi
6:56 PM82 °FSunny.13 mph10%29.80 "Hg10 mi
5:56 PM86 °FSunny.22 mph9%29.80 "Hg10 mi
4:56 PM89 °FSunny.20 mph8%29.80 "Hg10 mi
3:56 PM89 °FSunny.22 mph9%29.79 "Hg10 mi
2:56 PM90 °FSunny.20 mph8%29.80 "Hg10 mi
1:56 PM90 °FSunny.22 mph8%29.83 "Hg10 mi
12:56 PM89 °FSunny.14 mph9%29.83 "Hg10 mi
11:56 AM88 °FSunny.9 mph11%29.84 "Hg10 mi
10:56 AM86 °FSunny.17 mph12%29.85 "Hg10 mi
9:56 AM84 °FSunny.12 mph13%29.88 "Hg10 mi
8:56 AM77 °FSunny.6 mph17%29.89 "Hg10 mi
7:56 AM68 °FSunny.8 mph24%29.92 "Hg10 mi
6:56 AM59 °FSunny.9 mph28%29.93 "Hg10 mi
5:56 AM53 °FSunny.6 mph34%29.92 "Hg10 mi
4:56 AM51 °FClear.5 mph36%29.90 "Hg10 mi
3:56 AM54 °FClear.6 mph31%29.88 "Hg10 mi
2:56 AM57 °FClear.No wind27%29.86 "Hg10 mi
1:56 AM54 °FClear.No wind29%29.88 "Hg10 mi
12:56 AM57 °FClear.8 mph26%29.87 "Hg10 mi
11:56 PM
Mon, Jun 1
62 °FClear.No wind22%29.85 "Hg10 mi
10:56 PM64 °FClear.5 mph21%29.85 "Hg10 mi
9:56 PM64 °FClear.7 mph19%29.86 "Hg10 mi
Weather by CustomWeather, © 2015

See weather overviewHow to use our weather pages